• In Belarus
  • List of Countries
  • For 7 days
  • Water Temperature
  • Satellite Maps
  • Weather Map
  • Weather Widgets
  • user-avatar
    Login

    Hourly Weather Kulyub

    Today, 15 December, Saturday

    Time Temperature Precipitation Wind Pressure Humidity
    00:00 +10°C° 0 mm 3 mps 728 mmHg 26%
    01:00 +9°C° 0 mm 2 mps 728 mmHg 26%
    02:00 +9°C° 0 mm 2 mps 729 mmHg 26%
    03:00 +9°C° 0 mm 2 mps 729 mmHg 26%
    04:00 +9°C° 0 mm 2 mps 728 mmHg 26%
    05:00 +9°C° 0 mm 3 mps 727 mmHg 22%
    06:00 +9°C° 0 mm 3 mps 727 mmHg 23%
    07:00 +9°C° 0 mm 3 mps 728 mmHg 23%
    08:00 +8°C° 0 mm 2 mps 728 mmHg 24%
    09:00 +12°C° 0 mm 2 mps 727 mmHg 21%
    10:00 +14°C° 0 mm 2 mps 727 mmHg 19%
    11:00 +17°C° 0 mm 2 mps 727 mmHg 16%
    12:00 +18°C° 0 mm 2 mps 726 mmHg 15%
    13:00 +18°C° 0 mm 2 mps 726 mmHg 14%
    14:00 +19°C° 0 mm 2 mps 725 mmHg 13%
    15:00 +19°C° 0 mm 1 mps 726 mmHg 16%
    16:00 +16°C° 0 mm 1 mps 726 mmHg 19%
    17:00 +15°C° 0 mm 1 mps 725 mmHg 23%
    18:00 +14°C° 0 mm 1 mps 726 mmHg 24%
    19:00 +13°C° 0 mm 2 mps 727 mmHg 25%
    20:00 +13°C° 0 mm 2 mps 727 mmHg 26%
    21:00 +12°C° 0 mm 2 mps 727 mmHg 27%
    22:00 +12°C° 0 mm 2 mps 728 mmHg 27%
    23:00 +10°C° 0 mm 2 mps 728 mmHg 27%

    Tomorrow, 16 December, Sunday

    Time Temperature Precipitation Wind Pressure Humidity
    00:00 +11°C° 0 mm 1 mps 729 mmHg 27%
    01:00 +10°C° 0 mm 1 mps 729 mmHg 28%
    02:00 +10°C° 0 mm 1 mps 729 mmHg 28%
    03:00 +10°C° 0 mm 1 mps 729 mmHg 28%
    04:00 +9°C° 0 mm 1 mps 730 mmHg 29%
    05:00 +9°C° 0 mm 1 mps 730 mmHg 30%
    06:00 +9°C° 0 mm 1 mps 730 mmHg 32%
    07:00 +9°C° 0 mm 1 mps 731 mmHg 34%
    08:00 +8°C° 0 mm 1 mps 731 mmHg 36%
    09:00 +10°C° 0 mm 1 mps 731 mmHg 34%
    10:00 +11°C° 0 mm 1 mps 731 mmHg 33%
    11:00 +13°C° 0 mm 1 mps 731 mmHg 31%
    12:00 +14°C° 0 mm 1 mps 730 mmHg 29%
    13:00 +14°C° 0 mm 1 mps 730 mmHg 28%
    14:00 +15°C° 0 mm 1 mps 729 mmHg 26%
    15:00 +14°C° 0 mm 1 mps 729 mmHg 28%
    16:00 +13°C° 0 mm 1 mps 729 mmHg 30%
    17:00 +12°C° 0 mm 1 mps 729 mmHg 32%
    18:00 +12°C° 0 mm 1 mps 729 mmHg 33%
    19:00 +11°C° 0 mm 1 mps 729 mmHg 34%
    20:00 +11°C° 0 mm 1 mps 729 mmHg 34%
    21:00 +10°C° 0 mm 1 mps 728 mmHg 34%
    22:00 +10°C° 0 mm 1 mps 728 mmHg 34%
    23:00 +10°C° 0 mm 1 mps 728 mmHg 33%

    Day after tomorrow, 17 December, Monday

    Time Temperature Precipitation Wind Pressure Humidity
    00:00 +10°C° 0 mm 1 mps 728 mmHg 32%
    01:00 +9°C° 0 mm 2 mps 727 mmHg 31%
    02:00 +9°C° 0 mm 2 mps 727 mmHg 31%
    03:00 +8°C° 0 mm 2 mps 727 mmHg 30%
    04:00 +8°C° 0 mm 2 mps 727 mmHg 30%
    05:00 +8°C° 0 mm 2 mps 727 mmHg 30%
    06:00 +8°C° 0 mm 2 mps 727 mmHg 29%
    07:00 +8°C° 0 mm 2 mps 727 mmHg 28%
    08:00 +8°C° 0 mm 2 mps 727 mmHg 28%
    09:00 +10°C° 0 mm 2 mps 727 mmHg 25%
    10:00 +14°C° 0 mm 2 mps 727 mmHg 21%
    11:00 +16°C° 0 mm 1 mps 727 mmHg 18%
    12:00 +18°C° 0 mm 1 mps 727 mmHg 17%
    13:00 +18°C° 0 mm 1 mps 727 mmHg 15%
    14:00 +19°C° 0 mm 1 mps 726 mmHg 14%
    15:00 +18°C° 0 mm 1 mps 727 mmHg 17%
    16:00 +16°C° 0 mm 1 mps 727 mmHg 19%
    17:00 +15°C° 0 mm 1 mps 727 mmHg 22%
    18:00 +14°C° 0 mm 1 mps 727 mmHg 23%
    19:00 +14°C° 0 mm 1 mps 727 mmHg 23%
    20:00 +13°C° 0 mm 1 mps 728 mmHg 24%
    21:00 +13°C° 0 mm 2 mps 728 mmHg 26%
    22:00 +12°C° 0 mm 2 mps 728 mmHg 27%
    23:00 +10°C° 0 mm 2 mps 727 mmHg 29%

    18 December, Tuesday

    Time Temperature Precipitation Wind Pressure Humidity
    00:00 +10°C° 0 mm 2 mps 727 mmHg 29%
    01:00 +10°C° 0 mm 2 mps 727 mmHg 30%
    02:00 +9°C° 0 mm 2 mps 727 mmHg 31%
    03:00 +9°C° 0 mm 2 mps 727 mmHg 31%
    04:00 +9°C° 0 mm 2 mps 726 mmHg 31%
    05:00 +9°C° 0 mm 2 mps 726 mmHg 32%
    06:00 +9°C° 0 mm 2 mps 726 mmHg 32%
    07:00 +9°C° 0 mm 2 mps 726 mmHg 31%
    08:00 +9°C° 0 mm 2 mps 726 mmHg 31%
    09:00 +12°C° 0 mm 2 mps 726 mmHg 28%
    10:00 +14°C° 0 mm 2 mps 726 mmHg 24%
    11:00 +16°C° 0 mm 1 mps 726 mmHg 21%
    12:00 +18°C° 0 mm 1 mps 725 mmHg 19%
    13:00 +18°C° 0 mm 2 mps 725 mmHg 17%
    14:00 +19°C° 0 mm 2 mps 724 mmHg 15%
    15:00 +18°C° 0 mm 2 mps 724 mmHg 18%
    16:00 +17°C° 0 mm 2 mps 723 mmHg 20%
    17:00 +15°C° 0 mm 2 mps 723 mmHg 23%
    18:00 +15°C° 0 mm 2 mps 723 mmHg 24%
    19:00 +14°C° 0 mm 2 mps 723 mmHg 25%
    20:00 +14°C° 0 mm 2 mps 723 mmHg 26%
    21:00 +14°C° 0 mm 2 mps 723 mmHg 26%
    22:00 +14°C° 0 mm 2 mps 722 mmHg 26%
    23:00 +13°C° 0 mm 2 mps 722 mmHg 27%

    19 December, Wednesday

    Time Temperature Precipitation Wind Pressure Humidity
    00:00 +13°C° 0 mm 2 mps 721 mmHg 27%
    01:00 +13°C° 0 mm 2 mps 721 mmHg 27%
    02:00 +13°C° 0 mm 2 mps 720 mmHg 28%
    03:00 +12°C° 0 mm 2 mps 720 mmHg 29%
    04:00 +12°C° 0 mm 2 mps 720 mmHg 30%
    05:00 +11°C° 0 mm 1 mps 719 mmHg 32%
    06:00 +11°C° 0 mm 1 mps 720 mmHg 32%
    07:00 +11°C° 0 mm 1 mps 720 mmHg 33%
    08:00 +11°C° 0 mm 1 mps 720 mmHg 33%
    09:00 +13°C° 0 mm 1 mps 721 mmHg 30%
    10:00 +14°C° 0 mm 1 mps 721 mmHg 27%
    11:00 +16°C° 0 mm 1 mps 722 mmHg 24%
    12:00 +16°C° 0 mm 1 mps 722 mmHg 23%
    13:00 +18°C° 0 mm 1 mps 722 mmHg 23%
    14:00 +17°C° 0 mm 2 mps 722 mmHg 22%
    15:00 +16°C° 0 mm 2 mps 723 mmHg 24%
    16:00 +15°C° 0 mm 2 mps 724 mmHg 27%
    17:00 +14°C° 0 mm 2 mps 725 mmHg 29%
    18:00 +13°C° 0 mm 2 mps 726 mmHg 32%
    19:00 +11°C° 0 mm 3 mps 726 mmHg 36%
    20:00 +10°C° 0 mm 3 mps 727 mmHg 39%
    21:00 +10°C° 0 mm 2 mps 728 mmHg 43%
    22:00 +9°C° 0 mm 2 mps 728 mmHg 46%
    23:00 +9°C° 0 mm 2 mps 729 mmHg 49%

    20 December, Thursday

    Time Temperature Precipitation Wind Pressure Humidity
    00:00 +8°C° 0 mm 2 mps 729 mmHg 51%
    01:00 +9°C° 0 mm 1 mps 729 mmHg 53%
    02:00 +9°C° 0 mm 1 mps 729 mmHg 55%
    03:00 +8°C° 0 mm 1 mps 729 mmHg 57%
    04:00 +7°C° 0 mm 0 mps 729 mmHg 58%
    05:00 +7°C° 0 mm 0 mps 729 mmHg 60%
    06:00 +6°C° 0 mm 0 mps 729 mmHg 60%
    07:00 +6°C° 0 mm 0 mps 730 mmHg 60%
    08:00 +6°C° 0 mm 0 mps 730 mmHg 60%
    09:00 +7°C° 0 mm 0 mps 730 mmHg 55%
    10:00 +10°C° 0 mm 1 mps 730 mmHg 50%
    11:00 +11°C° 0 mm 1 mps 730 mmHg 45%
    12:00 +12°C° 0 mm 1 mps 730 mmHg 42%
    13:00 +12°C° 0 mm 2 mps 729 mmHg 39%
    14:00 +13°C° 0 mm 2 mps 728 mmHg 37%
    15:00 +13°C° 0 mm 2 mps 728 mmHg 39%
    16:00 +12°C° 0 mm 2 mps 728 mmHg 42%
    17:00 +10°C° 0 mm 2 mps 728 mmHg 45%
    18:00 +10°C° 0 mm 2 mps 728 mmHg 46%
    19:00 +9°C° 0 mm 2 mps 728 mmHg 48%
    20:00 +8°C° 0 mm 2 mps 729 mmHg 50%
    21:00 +8°C° 0 mm 2 mps 728 mmHg 49%
    22:00 +8°C° 0 mm 2 mps 728 mmHg 48%
    23:00 +8°C° 0 mm 2 mps 728 mmHg 46%
    Show more